Flag for Bahrain Weather past 2 weeks in Manama, Bahrain

Now
86 °F

Clear.


Feels Like: 93 °F
Forecast: 87 / 97 °F
Wind: 5 mph from East

Location: Bahrain International Airport

Current Time: Oct 1, 2014 at 3:08:26 AM

Latest Report: Oct 1, 2014 at 2:00 AM


Visibility: 4 mi

Pressure: 29.80 "Hg

Humidity: 66%

Dew point: 73 °F

Location of ManamaLocation

Historic Weather in Manama — Graph

°F

Manama temperature yesterday

Maximum temperature yesterday: 93 °F (at 10:00 AM)
Minimum temperature yesterday: 84 °F (at 2:00 AM)
Average temperature yesterday: 89 °F

Past Weeks' High & Low Weather Summary

 TemperatureHumidityPressure
High102 °F (Sep 16, 9:00 AM)79% (Sep 23, 5:00 AM)29.89 "Hg (Sep 23, 5:00 AM)
Low82 °F (Sep 27, 6:00 AM)15% (Sep 16, 9:00 AM)29.56 "Hg (Sep 16, 1:00 AM)
Average91 °F52%29.73 "Hg
* Reported Sep 16 1:00 AM — Oct 1 1:00 AM, Manama, Weather by CustomWeather, © 2014

Note: Actual official high and low records may vary slightly from our data, if they occured in-between our weather recording intervals... More about our weather records

Advertising

Manama weather history for previous 24 hours

 ConditionsComfort  
Time TempWeatherWind HumidityBarometerVisibility
1:00 AM
Oct 1
86 °FClear.7 mph66%29.80 "Hg4 mi
12:00 AM88 °FClear.6 mph62%29.80 "Hg4 mi
11:00 PM
Sep 30
88 °FClear.6 mph62%29.83 "Hg4 mi
10:00 PM88 °FClear.6 mph62%29.83 "Hg4 mi
9:00 PM88 °FClear.6 mph62%29.83 "Hg4 mi
8:00 PM90 °FClear.7 mph55%29.83 "Hg4 mi
7:00 PM90 °FClear.8 mph55%29.83 "Hg4 mi
6:00 PM90 °FClear.9 mph55%29.80 "Hg5 mi
5:00 PM90 °FSunny.12 mph59%29.80 "Hg5 mi
4:00 PM91 °FSunny.10 mph52%29.80 "Hg5 mi
3:00 PM91 °FSunny.10 mph52%29.77 "Hg4 mi
2:00 PM91 °FPassing clouds.8 mph52%29.80 "Hg4 mi
1:00 PM93 °FPassing clouds.8 mph41%29.80 "Hg4 mi
12:00 PM93 °FPassing clouds.9 mph36%29.83 "Hg4 mi
11:00 AM91 °FPassing clouds.8 mph49%29.86 "Hg6 mi
10:00 AM93 °FPassing clouds.6 mph53%29.86 "Hg4 mi
9:00 AM90 °FPassing clouds.6 mph59%29.86 "Hg5 mi
8:00 AM88 °FPassing clouds.6 mph66%29.86 "Hg5 mi
7:00 AM86 °FSunny.3 mph66%29.86 "Hg4 mi
6:00 AM86 °FSunny.2 mph66%29.83 "Hg4 mi
5:00 AM86 °FClear.2 mph62%29.83 "Hg4 mi
4:00 AM86 °FClear.2 mph62%29.80 "Hg5 mi
3:00 AM84 °FClear.No wind66%29.80 "Hg5 mi
Weather by CustomWeather, © 2014

See weather overviewHow to use our weather pages